EHI
0 0 0 0 0 0 0 1 2 5 8 11 15 18 18 18 22 24 22 22 23 27 30 34 37 38 38 39 43 44 42 39 36 36 37 36 35 34 33 31 28 27 26 25
0 0 0 0 0 0 2 3 5 8 12 13 17 20 21 21 24 26 26 25 26 28 31 33 36 37 37 37 39 40 39 37 35 33 33 32 32 32 32 30 28 27 26 24
0 0 0 0 1 3 5 6 8 11 13 15 18 20 20 21 24 25 26 26 27 28 29 31 34 36 36 35 34 34 34 33 31 29 28 28 28 28 28 28 26 25 23 21
0 0 0 1 3 5 7 8 10 12 13 15 17 17 17 20 21 21 22 24 25 24 25 28 33 35 34 33 31 30 29 29 28 26 26 26 26 23 22 23 22 20 20 20
0 0 1 2 4 6 7 8 10 11 13 14 15 15 16 19 21 20 20 21 23 22 23 25 30 32 32 30 28 27 26 26 27 27 26 26 24 20 17 17 17 17 18 18
1 1 2 3 4 4 6 7 8 9 10 11 13 14 15 18 21 21 20 21 22 22 22 23 24 26 27 27 26 24 23 25 27 27 26 25 23 19 16 16 17 16 14 13
2 3 3 3 4 4 4 5 6 7 7 8 9 11 13 16 18 19 21 22 22 21 21 19 19 21 24 25 24 23 22 23 24 24 23 22 20 18 17 17 16 13 9 8
2 2 2 2 3 4 4 4 5 6 7 7 7 8 11 14 15 16 17 20 20 18 18 17 18 20 23 24 25 25 22 21 20 19 18 16 15 15 15 15 12 8 5 4
2 2 2 2 3 3 4 5 7 7 7 6 5 6 9 12 13 13 13 15 17 16 16 17 18 19 20 20 22 23 21 18 16 15 13 12 11 12 12 11 8 5 2 1
3 4 5 5 4 3 4 5 7 7 6 5 4 4 6 9 12 13 12 13 15 16 16 17 18 18 17 16 17 19 18 15 13 13 11 10 10 11 10 8 6 4 2 1
4 5 6 6 4 3 3 4 4 4 3 3 3 3 4 7 11 12 12 12 14 15 15 16 17 16 14 14 15 15 14 12 10 10 9 8 6 6 6 5 5 4 4 3
5 5 5 4 3 3 2 2 2 1 1 1 2 3 3 5 8 9 9 11 12 12 12 12 14 14 13 13 14 14 12 10 7 6 5 4 2 2 2 2 2 2 3 3
4 4 3 3 2 2 1 1 1 0 0 0 1 1 2 3 5 5 6 8 8 7 6 7 10 12 11 12 13 12 10 8 5 2 1 1 0 0 0 0 0 0 1 1
2 2 2 2 1 1 1 1 1 1 0 0 0 0 1 1 2 2 3 4 3 3 2 3 6 7 8 9 10 9 8 6 3 1 0 0 0 0 0 0 0 0 0 0
1 1 1 1 1 1 1 1 2 1 0 0 0 0 0 0 0 1 1 1 1 1 1 2 3 4 6 6 6 6 6 4 2 0 0 0 0 0 0 0 0 0 0 0
0 0 0 0 0 0 0 1 1 1 0 0 0 0 0 0 0 0 0 0 0 0 1 1 1 3 5 5 4 3 3 2 0 0 0 0 0 0 0 0 0 0 0 0
0 0 0 0 0 0 0 0 0 0 0 0 0 0 0 0 0 0 0 0 0 0 0 0 0 1 3 4 3 1 1 0 0 0 0 0 0 0 0 0 0 0 0 0
0 0 0 0 0 0 0 0 0 0 0 0 0 0 0 0 0 0 0 0 0 0 0 0 0 0 2 3 3 1 0 0 0 0 0 0 0 0 0 0 0 0 0 0
0 0 0 0 0 0 0 0 0 0 0 0 0 0 0 0 0 0 0 0 0 0 0 0 0 1 2 3 3 2 1 0 0 0 0 0 0 0 0 0 0 0 0 0
0 0 0 0 0 0 0 0 0 0 0 0 0 0 0 0 0 0 0 0 0 0 0 0 0 1 2 3 3 2 1 0 0 0 0 0 0 0 0 0 0 0 0 0
0 0 0 0 0 0 0 0 0 0 0 0 0 0 0 0 0 0 0 0 0 0 0 0 0 1 2 3 3 2 1 0 0 0 0 0 0 0 0 0 0 0 0 0
0 0 0 0 0 0 0 0 0 0 0 0 0 0 0 0 0 0 0 0 0 0 0 0 0 1 2 3 3 2 1 0 0 0 0 0 0 0 0 0 0 0 0 0
0 0 0 0 0 0 0 0 0 0 0 0 0 0 0 0 0 0 0 0 0 0 0 0 0 0 1 2 2 1 0 0 0 0 0 0 0 0 0 0 0 0 0 0
0 0 0 0 0 0 0 0 0 0 0 0 0 0 0 0 0 0 0 0 0 0 0 0 0 0 0 1 1 0 0 0 0 0 0 0 0 0 0 0 0 0 0 0
0 0 0 0 0 0 0 0 0 0 0 0 0 0 0 0 0 0 0 0 0 0 0 0 0 0 0 0 0 0 0 0 0 0 0 0 0 0 0 0 0 0 0 0
0 0 0 0 0 0 0 0 0 0 0 0 0 0 0 0 0 0 0 0 0 0 0 0 0 0 0 0 0 0 0 0 0 0 0 0 0 0 0 0 0 0 0 0
0 0 0 0 0 0 0 0 0 0 0 0 0 0 0 0 0 0 0 0 0 0 0 0 0 0 0 0 0 0 0 0 0 0 0 0 0 0 0 0 0 0 0 0
Wind_Speed
3 4 3 4 6 5 2 5 6 6 7 8 7 7 7 7 6 6 6 6 6 4 3 4 4 4 4 3 4 5 5 6 6 5 5 5 5 5 4 4 4 3 3 3
4 4 4 4 5 4 2 1 2 3 1 3 3 4 5 6 7 6 6 6 5 4 4 4 4 4 4 3 3 4 5 5 5 5 5 5 5 5 4 4 3 3 2 3
3 5 4 4 3 1 1 0 3 3 4 5 4 4 6 7 7 7 6 5 5 4 4 3 3 4 4 3 2 3 4 4 4 5 5 5 5 4 4 4 3 3 2 2
1 3 3 6 3 3 4 4 2 3 4 5 6 4 3 4 6 6 6 6 5 4 3 3 4 3 3 3 3 4 4 4 4 4 4 4 4 4 4 3 3 3 3 3
2 2 5 4 3 2 2 3 3 4 3 4 5 6 3 1 3 5 5 5 4 4 4 3 4 4 4 3 3 4 4 3 3 4 4 4 4 4 3 3 2 3 3 2
3 2 4 5 5 1 4 2 3 3 4 3 5 3 2 1 3 3 4 4 4 4 4 4 3 4 4 3 3 3 3 3 3 3 4 4 4 3 2 2 3 2 2 2
3 3 5 5 6 4 3 3 3 1 4 3 3 4 4 2 2 3 3 4 5 4 3 3 4 5 4 3 2 2 3 3 3 3 3 3 3 3 2 2 2 1 1 1
2 3 6 5 4 3 3 2 0 1 2 3 4 5 4 3 3 3 3 4 4 4 3 2 3 5 4 3 2 2 2 2 2 2 2 3 3 2 2 2 2 1 1 0
4 5 5 1 2 2 3 2 0 1 2 4 5 4 3 3 2 2 3 3 3 4 3 2 2 4 4 2 2 3 3 2 2 1 1 2 2 2 1 1 1 1 1 1
1 3 2 1 1 1 1 2 2 2 2 3 4 4 3 2 2 2 2 2 2 4 3 2 1 2 3 3 3 3 4 3 2 2 1 1 1 1 2 1 2 2 2 2
3 4 3 3 2 1 2 4 4 4 3 3 2 2 2 1 2 1 1 1 2 3 3 2 2 1 2 3 3 3 3 2 1 1 1 1 1 0 1 1 2 3 3 2
6 5 3 4 3 1 4 3 3 3 2 2 2 2 2 1 1 1 1 1 2 2 2 1 2 2 2 2 3 3 2 2 1 1 1 1 1 1 3 1 2 1 1 2
5 3 3 3 2 1 2 1 1 2 1 1 1 2 2 1 1 2 1 1 1 2 2 2 2 1 1 1 2 3 3 2 2 1 1 1 1 1 0 3 3 3 2 1
4 2 3 3 2 1 2 2 1 1 1 1 2 1 2 2 1 1 1 2 2 2 2 1 2 1 1 2 2 2 2 3 2 2 1 1 1 1 1 1 0 2 2 2
4 3 4 3 2 1 2 1 1 1 0 1 1 2 3 3 2 1 1 1 3 3 2 2 2 1 0 2 3 2 2 1 1 2 1 1 1 1 1 1 1 0 1 1
2 0 2 2 2 2 2 2 2 2 2 2 2 2 3 3 2 1 1 2 4 3 2 2 1 1 1 2 2 1 1 2 1 1 1 1 1 1 1 1 1 1 1 1
1 1 1 2 2 2 2 3 4 3 3 3 4 3 4 4 3 3 3 2 3 2 1 1 1 1 1 1 2 1 1 1 1 1 1 2 2 2 2 2 1 1 1 1
3 3 3 4 3 2 2 2 3 3 3 3 4 4 4 4 3 2 1 2 3 2 2 1 0 0 0 0 1 1 1 1 1 1 1 1 1 2 2 2 2 1 1 1
2 2 2 2 3 4 4 4 4 3 3 4 4 4 3 3 3 2 2 2 2 1 2 2 1 0 0 0 1 1 1 1 1 1 1 2 1 1 1 2 1 1 1 1
2 2 3 4 4 4 4 3 4 4 3 4 4 4 3 2 2 2 2 1 1 2 1 1 1 1 1 1 1 1 1 1 2 1 1 1 1 1 1 1 1 1 1 1
4 3 4 5 4 3 3 4 4 4 2 3 4 4 3 1 1 2 2 1 2 1 0 0 0 1 1 1 1 1 1 1 1 1 2 1 1 1 1 1 1 1 1 1
4 3 4 3 3 3 3 3 4 4 3 2 2 3 2 2 1 1 1 1 2 1 0 0 0 1 1 1 1 1 1 1 1 1 1 1 1 1 1 1 1 1 1 1
2 2 2 3 3 3 3 3 3 3 3 2 2 2 2 2 2 2 1 2 1 1 1 1 1 1 0 1 1 1 1 1 1 1 1 2 2 1 1 1 1 1 1 1
2 1 2 3 4 4 3 2 2 2 2 2 2 2 2 2 0 1 2 2 2 2 1 1 1 0 1 1 1 1 1 1 1 1 1 1 1 1 1 1 1 1 1 1
1 1 2 3 3 2 2 1 2 1 1 1 1 1 1 2 2 2 1 1 2 2 1 0 1 1 1 1 1 1 1 1 1 1 1 1 1 1 1 1 1 1 1 1
1 1 1 2 2 2 2 2 2 1 1 1 0 0 0 0 1 1 0 1 1 2 1 0 0 0 0 0 1 0 0 0 0 1 1 1 1 1 0 1 1 1 1 1
1 1 1 1 1 1 1 2 1 1 1 1 1 1 0 0 1 1 1 0 0 1 1 1 0 0 0 0 0 1 1 0 0 0 0 1 1 1 0 1 1 1 0 0
Wind_Direction
233 256 284 298 306 307 245 195 196 215 192 207 194 174 162 145 136 129 134 133 133 136 143 139 128 127 136 143 158 169 173 180 186 182 177 176 180 191 188 185 189 191 197 206
326 320 335 314 307 303 297 254 176 141 206 209 170 131 126 135 134 132 138 140 135 127 124 131 138 142 135 144 158 156 166 177 172 172 176 181 189 191 185 191 184 170 183 200
291 311 357 299 294 357 26 307 158 189 207 154 128 146 162 160 149 144 142 139 141 143 137 140 141 138 143 151 143 147 159 162 162 167 173 180 186 187 190 192 176 173 194 204
241 7 249 250 295 73 76 35 46 116 150 148 149 153 139 145 144 143 141 142 146 143 140 137 125 117 130 129 139 145 143 148 155 154 164 174 178 192 193 177 172 197 210 230
148 207 269 297 321 348 80 352 16 99 101 107 106 77 49 64 119 142 144 143 139 138 139 124 114 111 101 115 129 131 138 155 160 157 162 168 172 179 178 167 189 202 181 192
157 183 234 263 291 275 93 353 340 96 108 115 94 93 251 320 86 100 114 119 119 116 110 113 120 113 110 122 127 144 159 162 152 154 162 167 170 167 166 161 181 185 172 183
183 210 253 276 308 35 114 223 295 124 128 123 144 179 195 159 105 107 117 121 118 116 123 141 144 128 128 120 145 178 155 136 137 149 159 161 156 153 156 164 170 184 188 207
165 197 250 301 26 97 200 231 295 95 118 110 116 118 130 127 114 96 101 112 122 131 139 139 138 133 135 145 177 148 127 128 131 141 154 144 141 151 163 166 167 179 184 257
188 217 244 298 126 185 152 122 91 106 101 115 113 120 132 120 111 102 113 132 141 139 128 116 130 131 137 167 152 130 123 127 130 120 125 146 155 158 165 167 170 182 187 219
330 279 286 331 61 45 89 95 72 72 96 114 129 133 130 125 130 112 95 127 122 120 123 127 130 132 155 161 149 138 140 145 141 126 107 86 117 152 169 179 180 190 197 218
280 281 333 327 326 132 99 83 74 59 67 80 100 113 128 149 143 119 80 39 92 123 137 162 163 158 169 159 148 141 145 144 143 144 146 110 59 23 216 230 212 202 209 203
242 245 229 275 292 135 114 104 97 82 50 59 99 112 112 156 149 114 103 80 95 116 142 171 174 188 201 182 158 143 137 142 148 143 140 140 123 30 20 10 9 33 194 193
226 237 216 241 289 311 132 148 135 139 165 160 149 148 143 168 173 151 140 120 145 162 164 177 169 171 193 166 146 145 152 159 153 153 164 173 165 155 4 13 33 37 37 56
239 229 254 241 237 234 155 158 162 179 198 198 173 158 160 161 166 159 170 178 156 128 110 108 109 120 155 132 129 142 154 155 149 156 172 204 203 185 176 171 50 9 11 20
265 236 218 209 177 175 157 145 151 184 214 181 166 169 164 152 152 166 171 129 108 97 90 93 103 114 138 117 116 131 137 143 150 151 163 187 198 168 149 159 156 149 11 10
256 170 129 133 153 164 138 151 182 204 198 183 144 131 124 122 116 93 64 97 108 108 115 116 134 223 171 130 122 125 146 186 187 163 167 167 167 155 160 167 172 186 192 215
173 192 168 150 164 172 175 193 186 179 167 150 139 127 113 100 86 70 55 72 102 114 124 147 208 219 152 153 152 163 172 202 210 147 167 171 172 179 187 179 183 200 224 220
196 207 196 178 174 170 150 123 116 124 138 140 129 119 112 106 102 91 81 80 74 49 22 354 304 52 117 212 166 164 162 180 186 179 192 184 183 178 176 177 180 189 233 267
136 140 133 139 156 148 135 120 115 113 108 107 109 115 120 122 124 123 98 87 90 54 318 325 350 21 295 261 156 154 152 148 134 148 165 151 153 163 171 182 187 194 195 210
70 106 110 97 98 111 119 120 114 107 111 115 112 112 110 117 136 134 110 103 210 225 243 291 25 18 338 338 51 99 130 140 147 155 143 140 147 151 168 185 191 200 206 224
55 73 88 93 96 101 116 118 111 106 106 120 127 132 139 148 140 131 119 101 290 281 260 94 52 313 307 350 51 91 123 139 155 166 159 161 164 171 183 193 197 210 213 221
48 63 91 103 108 99 101 113 117 119 115 112 123 130 130 132 133 121 134 201 248 270 162 147 268 293 324 75 94 117 133 143 150 159 166 171 175 180 185 193 204 210 211 208
55 66 92 107 121 119 101 101 113 121 129 139 147 151 158 172 166 144 196 263 242 187 156 220 250 277 70 96 97 113 140 149 154 162 169 174 170 167 177 200 212 210 220 223
53 81 111 106 105 103 99 99 115 125 129 136 148 160 159 152 191 223 204 216 188 146 137 244 268 310 111 108 100 99 112 129 141 149 149 150 156 160 177 199 243 252 230 218
81 99 105 104 104 117 137 117 87 85 103 109 127 165 176 169 182 220 206 185 166 141 147 266 279 308 44 80 114 113 120 139 146 149 157 168 179 189 195 205 215 225 229 232
99 118 123 134 142 143 127 110 106 123 127 118 347 297 299 146 149 152 154 195 186 176 183 214 302 349 27 90 106 100 123 121 85 93 128 143 151 167 190 192 195 206 222 226
67 74 84 73 68 107 124 128 140 154 156 157 186 245 219 151 149 191 228 210 197 213 210 209 186 187 223 166 148 155 149 111 99 101 105 101 97 101 89 113 135 145 137 135